Location: Rokycany
(49.7330°N, 13.6000°E)
Time: 00:02:20
(UTC+02:00)

ISS - Pass Details

Date: 25 March 2019
Orbit: 408 x 410 km, 51.6° (Epoch: 22 April)

Event Time Altitude Azimuth Distance (km) Brightness Sun altitude
Rises 20:13:17 0° 254° (WSW) 2,332 0.8 -17.5°
Reaches altitude 10° 20:15:22 10° 255° (WSW) 1,472 -0.3 -17.8°
Maximum altitude 20:18:40 84° 345° (NNW) 416 -3.9 -18.3°
Enters shadow 20:19:15 58° 64° (ENE) 485 -3.7 -18.4°
